User: anonymous   Login
Location: Newark
(45.5000°N, 11.4167°E)
Time: 15:10:37
(UTC+00:00)
Language:

Explorer 7 - Orbit

View from above orbital plane
View from above orbital plane
View from above satellite
View from above satellite

Ground track
Ground track

The orbit data is extracted from the following two-line orbital elements,

1    22U 59009A   19235.18748793 -.00000043  00000-0  20001-4 0  9999
2    22  50.2846  65.9845 0140109 195.4882 164.1756 14.94901990180555
Epoch (UTC): 23 August 2019 04:29:58
Eccentricity: 0.0140109
inclination: 50.2846°
perigee height: 485 km
apogee height: 680 km
right ascension of ascending node: 65.9845°
argument of perigee: 195.4882°
revolutions per day: 14.94901990
mean anomaly at epoch: 164.1756°
orbit number at epoch: 18055

The dashed part of the orbit path shows where the satellite is in the earth's shadow,  

DLR